1st Responders/1st Detectors/Storm Spotters Weather Summary for Fayette County, KY

Forecast Maps


Reg. NEXRAD Animation


National Fire Danger: Day 1 & 2 Map

Current NWS Watch/Warnings

SPC Convective Day 1 Outlook


Day 2 Outlook

(Click images to enlarge|Page will refresh every 5 minutes)
UK Ag. Weather Center Desktop Severe Weather Service[HERE]
Fayette County, KY Hazardous Weather Outlook Webcast
(9 AM to 9 PM Mon-Fri)
[Fast]
[Dial-up]


UKAWC 1st Detectors/1st Responders Precision Weather Forecast For FAYETTE County, Kentucky
(based on the NWS County Digital Forecast)

ISSUED AT 21:00 UTC ON TUESDAY DEC 18 2018
DAY TUESDAY
EDT 3HR 6P 7P
MAX/MIN -- 45°
TEMP 40° 40°
SKY COVER 19% 20%
Clouds
DEW PT 29° 29°
RH 64% 67%
POP 12HR -- --
RAIN/SNOW (liq.equ) -- --
SNOWFALL -- --
WIND SPEED(MPH) 5 5
WIND Gust(MPH) 7 7
WIND DIR E E
DEW -- --
HeatIndex 38 36
Rain -- --
Rain Showers -- --
WIND CHILL 37° 37°
SPRAY COND
DRY COND
LIVESTOCK COLDSTRESS



DAY WEDNESDAY THURSDAY FRIDAY SATURDAY SUNDAY MONDAY
EDT 6HR 8P 9P 10P 11P MIDN 1A 2A 3A 4A 5A 6A 7A 8A 9A 10A 11A NOON 1P 2P 3P 4P 5P 6P 7P 8P 9P 10P 11P MIDN 1A 2A 3A 4A 5A 8A 11A 2P 5P 8P 2A 8A 2P 8P 2A 8A 2P 8P 2A 8A 2P 8P 2A 8A 2P 8P
MAX/MIN -- -- -- -- -- -- -- -- -- -- -- -- 31° -- -- -- -- -- -- -- -- -- -- 56° -- -- -- -- -- -- -- -- -- -- 43° -- -- 49° -- -- 40° 45° -- -- 29° 40° -- -- 29° 45° -- -- 31° 43° --
TEMP 38° 36° 34° 34° 34° 32° 32° 31° 31° 31° 31° 31° 31° 34° 36° 41° 45° 50° 54° 56° 56° 54° 52° 49° 47° 45° 43° 43° 43° 43° 43° 43° 43° 43° 43° 45° 47° 49° 45° 43° 45° 41° 40° 34° 29° 38° 36° 31° 29° 43° 41° 34° 31° 40° 36°
SKY COVER 20% 18% 15% 13% 12% 12% 11% 15% 20% 24% 27% 30% 34% 28% 22% 16% 16% 16% 16% 20% 25% 30% 38% 47% 56% 66% 75% 80% 82% 85% 86% 87% 89% 89% 96% 94% 99% 99% 99% 100% 100% 98% 97% 78% 70% 45% 38% 44% 50% 57% 72% 49% 49% 42% 35%
Clouds
DEW PT 29° 29° 29° 29° 27° 27° 27° 27° 27° 27° 27° 27° 29° 29° 31° 31° 32° 34° 36° 36° 38° 38° 38° 36° 36° 36° 36° 36° 36° 38° 38° 38° 38° 38° 38° 40° 43° 43° 43° 43° 40° 38° 34° 29° 25° 27° 27° 27° 27° 31° 32° 31° 27° 27° 27°
RH 72% 75% 78% 78% 78% 78% 78% 81% 81% 81% 85% 88% 88% 81% 78% 67% 60% 54% 49% 48% 50% 52% 56% 60% 67% 70% 76% 78% 79% 81% 82% 82% 86% 85% 82% 82% 82% 79% 89% 96% 82% 88% 79% 81% 85% 61% 70% 88% 88% 65% 70% 85% 88% 62% 72%
POP 12HR 0% -- -- -- -- -- -- -- -- -- -- -- 0% -- -- -- -- -- -- -- -- -- -- -- 2% -- -- -- -- -- -- -- -- -- 40% -- -- -- 82% -- 94% -- 91% -- 38% -- 2% -- 3% -- 30% -- 22% -- 4%
RAIN/SNOW (liq.equ) 0.00in -- -- -- -- -- 0.00in -- -- -- -- -- 0.00in -- -- -- -- -- 0.00in -- -- -- -- -- 0.00in -- -- -- -- -- 0.00in -- -- -- 0.02in -- 0.05in -- 0.20in -- -- -- -- -- -- -- -- -- -- -- -- -- -- -- --
SNOWFALL 0in -- -- -- -- -- 0in -- -- -- -- -- 0in -- -- -- -- -- 0in -- -- -- -- -- 0in -- -- -- -- -- 0in -- -- -- 0in -- 0in -- 0in -- -- -- -- -- -- -- -- -- -- -- -- -- -- -- --
WIND SPEED(MPH) 5 5 5 5 5 5 5 2 2 5 5 5 5 5 6 6 7 7 8 7 7 7 7 6 6 6 7 7 7 7 7 7 6 6 6 6 6 7 7 7 14 15 16 13 10 9 7 6 7 8 8 7 7 6 6
WIND DIR E E E E E SE SE SE SE SE SE S S S S S S SW SW SW S S S S S S S S S S S S S S SE E E NE NE N N NW NW W W W SW SW SW SW W W W W W
HeatIndex 34 32 31 31 29 28 28 28 28 27 26 26 27 29 32 38 45 50 54 56 56 54 52 49 47 41 40 38 38 38 38 38 39 39 39 41 47 49 45 40 38 34 32 25 20 32 31 25 23 37 36 28 24 35 31
Rain -- -- -- -- -- -- -- -- -- -- -- -- -- -- -- -- -- -- -- -- -- -- -- -- -- -- -- -- -- -- Chance Chance Chance Chance Likely Likely Definite Definite Definite -- -- -- -- -- -- -- -- -- -- -- -- -- -- -- --
Rain Showers -- -- -- -- -- -- -- -- -- -- -- -- -- -- -- -- -- -- -- -- -- -- -- -- -- -- -- -- -- -- -- -- -- -- -- -- -- -- -- Definite Definite Definite Chance -- -- -- -- -- -- Chance Slight Chance -- -- -- --
WIND CHILL 35° 32° 30° 30° 30° 28° 28° -- -- 26° 26° 26° 26° 30° 31° 37° 41° -- -- -- -- -- -- -- -- 42° 39° 39° 39° 39° 39° 39° 39° 39° 39° 42° -- -- 41° 39° 39° 33° 32° 25° 20° 32° 30° 25° 22° 38° 36° 28° 25° 36° 31°
SPRAY COND
DRY COND
LIVESTOCK COLDSTRESS

Click on individual weather variable above in left-hand column (ie., TEMP, RH, QPF 12HR) to view state forecast maps






NWS 48 Hr. Forecast Maps,

Regional Hourly Observations For FAYETTE County, Kentucky
Issued at 400 PM EST TUE DEC 18 2018
...CENTRAL KENTUCKY...
  
CITY           SKY/WX    TMP DP  RH WIND       PRES   REMARKS
MT STERLING*     N/A     45  30  57 E8        30.16F                  
FLEMING/MASON*   N/A     42  29  60 E3        30.16F                  
DANVILLE*        N/A     43  28  56 E5        30.14S                  
LEXINGTON        N/A     46  31  55 NE7       30.14F                  
FRANKFORT        N/A     45  30  55 E6        30.14F                  
LOUISVILLE     PTSUNNY   49  29  46 VRB5      30.15S                  
LEBANON*         N/A     46  34  61 NE3       30.14S                  
GLASGOW*         N/A     49  30  48 NE5       30.13F                  
BOWLING GREEN    N/A     50  30  46 NE5       30.14S                  


Current NOWCAST not available:
Nowcasts are not issued routinely during fair weather. Only when
precipitation or other significant weather is occuring in this county will these
forecasts be issued. Currently, there is no short term forecast in effect.


Fire Weather Forecast For FAYETTE County, KY
Provided by the National Weather Service:

Issued at: Tue Dec 18 16:05:01 EST 2018


                      Today        Tonight      Wed          

CLOUD COVER           MClear       MClear       PCldy        
PRECIP TYPE           None         None         None         
CHANCE PRECIP (%)     0            0            0            
TEMP (24H TREND)      45 (-6)      29 (+1)      56           
RH % (24H TREND)      48 (-1)      90 (-1)      46           
20FTWND-VAL/AM(MPH)   Lgt/Var                   Lgt/Var      
20FTWND-RDG/PM(MPH)   Lgt/Var      Lgt/Var      S  5         
PRECIP AMOUNT         0.00         0.00         0.00         
MIXING HGT(FT-AGL/MSL)2197                      2124         
TRANSPORT WND (MPH)   E  5                      SW 17        
VENT RATE (KT-FT)     12156                     36108        
DISPERSION            Poor                      Marginal     
DSI                   STBL         STBL         STBL         
LAL                   1            1            1            
HAINES INDEX          4            4            5            
ADI EARLY             11 POOR      4 VERY POOR  26 FAIR      
ADI LATE              15 GEN POOR  10 POOR      37 FAIR      
MAX LVORI EARLY       7            5            6            
MAX LVORI LATE        4            6            3            

REMARKS...ADI IS ATMOSPHERIC DISPERSION INDEX BY LAVDAS.        
LVORI IS LOW VISIBILITY OCCURRENCE RISK INDEX.

.THURSDAY...Cloudy with rain showers. Lows in the lower 40s.
Highs in the lower 50s. South winds around 5 mph. 
.FRIDAY...Rain showers. Lows in the lower 40s. Highs in the mid
40s. Northeast winds around 5 mph. 
.SATURDAY...Mostly cloudy. A 50 percent chance of rain showers.
Lows around 30. Highs in the lower 40s. Southwest winds 5 to
15 mph. 
.SUNDAY...Mostly cloudy. A 30 percent chance of rain showers.
Lows around 30. Highs in the mid 40s. Southwest winds 5 to
10 mph. 
.MONDAY...Partly cloudy. Lows in the lower 30s. Highs in the mid
40s. Southwest winds 5 to 10 mph. 

SPC's Fire Weather Web Tool (Excellent!), SPC's Fire Weather Outlooks, NWS Fire Weather WEB, Fire Danger Class Map,
Keetch-Byram Drought Index, ROMAN Web, Haines Index ,
WFAS's 10-hr Dead Fuel Moist., WFAS's 100-hr Dead Fuel Moist., Probablity of Ignition, Visual blackness Map, Palmer Drought Index, HPC's Rainfall Forecast Maps


Hazardous Weather Outlook For FAYETTE County, Kentucky
330 PM EST Tue Dec 18 2018 /230 PM CST Tue Dec 18 2018/

 DAY ONE  Tonight.

No hazardous weather is expected at this time.

 DAYS TWO THROUGH SEVEN  Wednesday through Monday.

No hazardous weather is expected at this time.

 SPOTTER INFORMATION STATEMENT  

Spotter activation is not expected at this time.

Latest FAYETTE County, Kentucky Watches, Warnings and Advisories.
Additional Drought Info.: UKAWC Drought Page, Kentucky Drought Watch


7-Day Forecast For FAYETTE County, KY

TONIGHT
Mostly clear. Lows in the lower 30s. Southeast winds up to 5 mph.

WEDNESDAY
Mostly sunny. Highs in the mid 50s. South winds 5 to 10 mph.

WEDNESDAY NIGHT
Mostly cloudy with a 40 percent chance of rain. Lows in the lower 40s. South winds 5 to 10 mph.

THURSDAY
Rain. Highs in the upper 40s. East winds around 5 mph. Chance of rain 80 percent.

THURSDAY NIGHT
Rain. Lows around 40. North winds 5 to 10 mph. Chance of rain 90 percent.

FRIDAY
Rain. Highs around 40. Chance of rain 90 percent.

FRIDAY NIGHT
Mostly cloudy with a 40 percent chance of rain and snow. Lows in the upper 20s.

SATURDAY
Partly cloudy. Highs in the lower 40s.

SATURDAY NIGHT
Partly cloudy. Lows in the lower 30s.

SUNDAY
Partly cloudy. Highs in the mid 40s.

SUNDAY NIGHT
Partly cloudy. Lows around 30.

MONDAY
Partly cloudy. Highs in the mid 40s.

MONDAY NIGHT
Partly cloudy. Lows in the lower 30s.

CHRISTMAS DAY
Partly cloudy with a 20 percent chance of rain. Highs in the upper 40s.

Ag Weather Center, Department of Biosystems & Agricultural Engineering, University of Kentucky